STARLINK AW

Last updated on Sun Jul 16 2023 00:02:06 GMT+0000 (Coordinated Universal Time)

1 57262U 23094AW 23196.23746283 -.00329428 42837-4 -96759-3 0 9993 2 57262 42.9938 273.0113 0023364 203.2790 156.7029 15.91123254 1371

Satellite not in orbit

STARLINK AW